This demonstration page uses our WeatherBlox Daily Observations layout. Learn more.

Hourly Observations for July 12, 2018

Temp ( °F °C ) Dew Point ( °F °C ) Humidity (%) Winds ( mph kmh ) Pressure ( in mb ) Visibility ( mi km ) Precip ( " mm )
12:15 am 00:15 Clear 75 23.9 67 19.3 76 76 S 6 9 29.94 1014 10 16.0934 0 0
12:35 am 00:35 Clear 75 24 67 19.2 75 75 S 6 9 29.94 1014 10 16.0934 0 0
12:55 am 00:55 Clear 75 23.8 66 19.1 75 75 S 5 7 29.94 1014 10 16.0934 0 0
1:15 am 01:15 Clear 73 23 67 19.2 79 79 SSE 5 7 29.97 1015 10 16.0934 0 0
1:35 am 01:35 Clear 73 22.6 67 19.3 82 82 S 5 7 29.97 1015 10 16.0934 0 0
1:55 am 01:55 Clear 73 23 66 19.1 79 79 S 6 9 29.97 1015 10 16.0934 0 0
2:15 am 02:15 Clear 73 23 66 19 78 78 S 8 13 29.94 1014 10 16.0934 0 0
2:35 am 02:35 Clear 74 23.1 66 19 78 78 S 8 13 29.94 1014 10 16.0934 0 0
2:55 am 02:55 Clear 73 23 66 19 78 78 S 7 11 29.94 1014 10 16.0934 0 0
3:15 am 03:15 Clear 73 23 66 19 78 78 S 7 11 29.94 1014 10 16.0934 0 0
3:35 am 03:35 Clear 73 23 66 19 78 78 S 8 13 29.94 1014 10 16.0934 0 0
3:55 am 03:55 Clear 72 22.2 66 19 82 82 SSE 7 11 29.94 1014 10 16.0934 0 0
4:15 am 04:15 Clear 71 21.5 66 19.1 86 86 SSE 6 9 29.94 1014 10 16.0934 0 0
4:35 am 04:35 Clear 71 21.5 67 19.3 87 87 S 5 7 29.94 1014 10 16.0934 0 0
4:55 am 04:55 Clear 71 21.5 67 19.5 88 88 SSE 5 7 29.94 1014 10 16.0934 0 0
5:15 am 05:15 Clear 71 21.5 67 19.6 89 89 S 6 9 29.94 1014 10 16.0934 0 0
5:35 am 05:35 Clear 71 21.4 67 19.6 90 90 SSE 6 9 29.94 1014 10 16.0934 0 0
5:55 am 05:55 Clear 70 21 67 19.7 92 92 SSE 5 7 29.94 1014 10 16.0934 0 0
6:15 am 06:15 Clear 70 21.2 68 19.8 92 92 S 6 9 29.94 1014 10 16.0934 0 0
6:35 am 06:35 Sunny 71 21.5 68 19.9 91 91 S 6 9 29.94 1014 10 16.0934 0 0
6:55 am 06:55 Sunny 71 21.6 68 19.9 90 90 S 5 7 29.97 1015 10 16.0934 0 0
7:15 am 07:15 Sunny 72 22.1 69 20.3 90 90 SSE 5 7 29.97 1015 10 16.0934 0 0
7:35 am 07:35 Sunny 73 22.8 69 20.5 87 87 S 6 9 29.97 1015 10 16.0934 0 0
7:55 am 07:55 Sunny 74 23.6 69 20.6 83 83 S 7 11 29.97 1015 10 16.0934 0 0
8:15 am 08:15 Sunny 76 24.4 69 20.8 80 80 S 7 11 29.94 1014 10 16.0934 0 0
8:35 am 08:35 Sunny 77 25.1 70 21 78 78 S 8 13 29.94 1014 10 16.0934 0 0
8:55 am 08:55 Sunny 79 25.9 70 21.2 75 75 S 8 13 29.94 1014 10 16.0934 0 0
9:15 am 09:15 Sunny 80 26.7 71 21.4 73 73 S 8 13 29.94 1014 10 16.0934 0 0
9:35 am 09:35 Sunny 81 27.3 70 21.1 69 69 S 10 17 29.94 1014 10 16.0934 0 0
9:55 am 09:55 Sunny 82 28 70 21.1 66 66 S 12 19 29.91 1013 10 16.0934 0 0
10:15 am 10:15 Sunny 84 28.7 70 20.9 63 63 S 10 17 29.91 1013 10 16.0934 0 0
10:35 am 10:35 Sunny 84 29.1 71 21.4 63 63 S 10 17 29.91 1013 10 16.0934 0 0
10:55 am 10:55 Sunny 85 29.5 71 21.4 62 62 S 9 15 29.91 1013 10 16.0934 0 0
11:15 am 11:15 Sunny 86 29.9 70 21.3 60 60 S 10 17 29.91 1013 10 16.0934 0 0
11:35 am 11:35 Sunny 87 30.3 70 21.3 59 59 SSE 10 17 29.91 1013 10 16.0934 0 0
11:55 am 11:55 Sunny 87 30.7 70 21.2 57 57 S 9 15 29.91 1013 10 16.0934 0 0
12:15 pm 12:15 Sunny 89 31.4 71 21.4 55 55 S 12 19 29.88 1012 10 16.0934 0 0
12:35 pm 12:35 Sunny 89 31.6 69 20.8 53 53 S 12 19 29.88 1012 10 16.0934 0 0
12:55 pm 12:55 Sunny 90 32.2 69 20.8 51 51 S 12 19 29.88 1012 10 16.0934 0 0
1:15 pm 13:15 Sunny 91 32.9 68 19.9 46 46 S 12 19 29.88 1012 10 16.0934 0 0
1:35 pm 13:35 Sunny 92 33.5 67 19.6 44 44 S 13 20 29.88 1012 10 16.0934 0 0
1:55 pm 13:55 Sunny 93 33.7 68 19.8 44 44 S 12 19 29.88 1012 10 16.0934 0 0
2:15 pm 14:15 Sunny 93 33.8 67 19.2 42 42 S 12 19 29.88 1012 10 16.0934 0 0
2:35 pm 14:35 Sunny 93 33.7 65 18.6 41 41 S 10 17 29.85 1011 10 16.0934 0 0
2:55 pm 14:55 Partly Cloudy 93 33.7 68 20.1 45 45 S 8 13 29.85 1011 10 16.0934 0 0
3:15 pm 15:15 Sunny 93 33.7 68 20.1 45 45 S 10 17 29.85 1011 10 16.0934 0 0
3:35 pm 15:35 Sunny 93 33.8 68 19.9 44 44 S 10 17 29.85 1011 10 16.0934 0 0
3:55 pm 15:55 Sunny 93 33.9 69 20.3 45 45 S 10 17 29.85 1011 10 16.0934 0 0
4:15 pm 16:15 Sunny 93 33.9 67 19.2 42 42 SSE 8 13 29.83 1010 10 16.0934 0 0
4:35 pm 16:35 Sunny 93 33.8 69 20.3 45 45 SSE 9 15 29.83 1010 10 16.0934 0 0
4:55 pm 16:55 Sunny 93 34 70 20.9 46 46 SSE 8 13 29.83 1010 10 16.0934 0 0
5:15 pm 17:15 Partly Cloudy with Nearby Thunderstorms 87 30.6 69 20.8 56 56 SE 15 24 29.83 1010 10 16.0934 0 0
5:35 pm 17:35 Partly Cloudy 82 27.6 68 20.1 64 64 E 15 24 29.85 1011 10 16.0934 0 0
5:55 pm 17:55 Partly Cloudy 85 29.6 69 20.8 59 59 E 9 15 29.83 1010 10 16.0934 0 0
6:15 pm 18:15 Partly Cloudy with Light Rain 86 29.9 71 21.6 61 61 SE 12 19 29.83 1010 10 16.0934 0 0
6:35 pm 18:35 Mostly Cloudy 86 30 71 21.4 60 60 SE 10 17 29.83 1010 10 16.0934 0 0
6:55 pm 18:55 Mostly Cloudy 85 29.3 69 20.6 59 59 SE 16 26 29.83 1010 10 16.0934 0 0
7:15 pm 19:15 Partly Cloudy 85 29.3 69 20.4 59 59 SE 10 17 29.83 1010 10 16.0934 0 0
7:35 pm 19:35 Mostly Cloudy 85 29.5 69 20.8 60 60 SE 13 20 29.83 1010 10 16.0934 0 0
7:55 pm 19:55 Partly Cloudy 84 29.1 67 19.3 56 56 SSE 13 20 29.83 1010 10 16.0934 0 0
8:15 pm 20:15 Partly Cloudy 83 28.6 68 20 60 60 SE 12 19 29.83 1010 10 16.0934 0 0
8:35 pm 20:35 Mostly Cloudy 83 28.1 68 20 61 61 SE 9 15 29.83 1010 10 16.0934 0 0
8:55 pm 20:55 Partly Cloudy 80 26.6 68 20.1 68 68 SE 8 13 29.83 1010 10 16.0934 0 0
9:15 pm 21:15 Clear 79 26.3 68 20 68 68 SE 9 15 29.85 1011 10 16.0934 0 0
9:35 pm 21:35 Clear 79 26 68 19.8 69 69 SE 8 13 29.85 1011 10 16.0934 0 0
9:55 pm 21:55 Clear 78 25.8 68 19.9 70 70 SSE 8 13 29.88 1012 10 16.0934 0 0
10:15 pm 22:15 Clear 78 25.8 68 19.9 70 70 SSE 9 15 29.88 1012 10 16.0934 0 0
10:35 pm 22:35 Clear 78 25.4 68 19.8 71 71 SSE 8 13 29.91 1013 10 16.0934 0 0
10:55 pm 22:55 Clear 79 25.9 67 19.6 68 68 S 9 15 29.91 1013 10 16.0934 0 0
11:15 pm 23:15 Clear 79 26.1 67 19.6 67 67 SSE 9 15 29.91 1013 10 16.0934 0 0
11:35 pm 23:35 Clear 78 25.5 67 19.7 70 70 S 9 15 29.91 1013 10 16.0934 0 0
11:55 pm 23:55 Clear 77 25 68 19.8 73 73 S 7 11 29.91 1013 10 16.0934 0 0

Powered by AerisWeather